TimeCST,TemperatureF,Dew PointF,Humidity,Sea Level PressureIn,VisibilityMPH,Wind Direction,Wind SpeedMPH,Gust SpeedMPH,PrecipitationIn,Events,Conditions,WindDirDegrees,DateUTC
12:52 AM,57.9,53.1,84,30.09,10.0,SSE,9.2,-,N/A,,Overcast,160,2013-11-05 06:52:00
1:52 AM,57.9,53.1,84,30.09,10.0,SSE,11.5,-,N/A,,Overcast,160,2013-11-05 07:52:00
2:52 AM,57.9,53.1,84,30.08,10.0,SSE,10.4,-,N/A,,Overcast,160,2013-11-05 08:52:00
3:52 AM,57.0,54.0,89,30.07,3.0,SSE,9.2,-,0.00,Rain,Light Rain,150,2013-11-05 09:52:00
4:08 AM,55.4,55.4,100,30.08,3.0,SSE,9.2,-,0.01,Rain,Light Rain,160,2013-11-05 10:08:00
4:42 AM,57.2,55.4,94,30.08,6.0,SSE,8.1,-,0.02,Rain,Light Rain,150,2013-11-05 10:42:00
4:52 AM,55.9,55.0,97,30.08,4.0,SSE,8.1,-,0.04,Rain,Light Rain,150,2013-11-05 10:52:00
5:52 AM,57.0,55.0,93,30.06,6.0,SE,9.2,-,0.05,Rain,Light Rain,140,2013-11-05 11:52:00
6:52 AM,57.0,55.0,93,30.06,10.0,SSE,10.4,-,0.02,Rain,Light Rain,160,2013-11-05 12:52:00
7:28 AM,57.2,55.4,94,30.06,2.0,SSE,13.8,-,0.06,Rain,Rain,150,2013-11-05 13:28:00
7:48 AM,57.2,55.4,94,30.05,1.8,SSE,11.5,20.7,0.10,Rain,Light Rain,150,2013-11-05 13:48:00
7:49 AM,57.0,55.0,93,30.05,1.5,SSE,11.5,20.7,0.10,Rain,Light Rain,150,2013-11-05 13:49:00
7:53 AM,57.2,55.4,94,30.05,2.0,SSE,15.0,20.7,0.00,Rain,Light Rain,150,2013-11-05 13:53:00
7:57 AM,57.2,55.4,94,30.05,3.0,SSE,11.5,19.6,0.00,Rain,Light Rain,150,2013-11-05 13:57:00
8:10 AM,57.2,55.4,94,30.05,2.5,SSE,10.4,-,0.01,Rain,Light Rain,150,2013-11-05 14:10:00
8:15 AM,57.2,55.4,94,30.05,1.8,SE,10.4,-,0.01,Rain,Light Rain,140,2013-11-05 14:15:00
8:22 AM,57.2,55.4,94,30.05,3.0,SE,10.4,-,0.01,Rain,Light Rain,140,2013-11-05 14:22:00
8:38 AM,57.2,55.4,94,30.05,2.5,SSE,12.7,19.6,0.02,Rain,Light Rain,150,2013-11-05 14:38:00
8:52 AM,57.9,55.9,93,30.04,4.0,SSE,12.7,-,0.02,Rain,Light Rain,150,2013-11-05 14:52:00
9:25 AM,57.2,55.4,94,30.04,10.0,SSE,12.7,-,0.01,,Overcast,160,2013-11-05 15:25:00
10:24 AM,60.8,57.2,88,30.04,10.0,SSE,11.5,-,0.01,,Overcast,160,2013-11-05 16:24:00
10:52 AM,60.1,57.0,90,30.03,10.0,SSE,11.5,-,0.01,Rain,Light Rain,160,2013-11-05 16:52:00
11:52 AM,61.0,57.9,90,29.99,8.0,South,12.7,-,0.00,Rain,Light Rain,170,2013-11-05 17:52:00
12:52 PM,62.1,57.9,86,29.97,10.0,South,12.7,-,0.00,,Overcast,170,2013-11-05 18:52:00
1:52 PM,62.1,57.9,86,29.94,10.0,South,9.2,-,N/A,,Overcast,190,2013-11-05 19:52:00
2:45 PM,60.8,59.0,94,29.93,2.5,South,11.5,-,0.03,Rain,Light Rain,180,2013-11-05 20:45:00
2:52 PM,61.0,59.0,93,29.92,1.5,South,10.4,-,0.06,Rain,Rain,170,2013-11-05 20:52:00
2:59 PM,60.8,59.0,94,29.93,1.8,South,11.5,-,0.02,Rain,Rain,180,2013-11-05 20:59:00
3:11 PM,60.8,59.0,94,29.93,2.5,South,11.5,-,0.04,Rain,Light Rain,180,2013-11-05 21:11:00
3:20 PM,60.8,59.0,94,29.92,4.0,South,11.5,-,0.04,Rain,Light Rain,170,2013-11-05 21:20:00
3:52 PM,61.0,59.0,93,29.92,6.0,South,13.8,20.7,0.04,,Overcast,180,2013-11-05 21:52:00
4:16 PM,60.8,59.0,94,29.92,2.5,South,13.8,21.9,0.02,Rain,Light Rain,170,2013-11-05 22:16:00
4:25 PM,60.8,59.0,94,29.92,6.0,South,12.7,19.6,0.02,Rain,Light Rain,180,2013-11-05 22:25:00
5:52 PM,62.1,60.1,93,29.92,8.0,South,10.4,-,0.00,Rain,Light Rain,180,2013-11-05 23:52:00
6:52 PM,62.1,60.1,93,29.90,6.0,South,13.8,21.9,0.01,,Overcast,180,2013-11-06 00:52:00
7:52 PM,63.0,61.0,93,29.90,9.0,South,13.8,-,N/A,,Overcast,180,2013-11-06 01:52:00
10:29 PM,64.4,60.8,88,29.91,3.0,South,16.1,-,0.05,Rain-Thunderstorm,Light Thunderstorms and Rain,190,2013-11-06 04:29:00
10:37 PM,64.4,60.8,88,29.94,3.0,West,17.3,24.2,0.08,Rain-Thunderstorm,Light Thunderstorms and Rain,280,2013-11-06 04:37:00
10:44 PM,62.6,59.0,88,29.93,1.5,West,17.3,-,0.27,Rain-Thunderstorm,Heavy Thunderstorms and Rain,270,2013-11-06 04:44:00
10:49 PM,60.8,59.0,94,29.93,1.0,WSW,10.4,21.9,0.40,Rain-Thunderstorm,Heavy Thunderstorms and Rain,240,2013-11-06 04:49:00
10:52 PM,60.1,57.9,93,29.94,1.0,SW,11.5,21.9,0.46,Rain-Thunderstorm,Heavy Thunderstorms and Rain,220,2013-11-06 04:52:00
11:03 PM,60.8,59.0,94,29.94,1.5,SW,10.4,-,0.16,Rain,Heavy Rain,220,2013-11-06 05:03:00
11:13 PM,60.8,59.0,94,29.95,2.5,WSW,6.9,-,0.23,Rain,Heavy Rain,240,2013-11-06 05:13:00
11:52 PM,54.0,52.0,93,29.97,5.0,NW,13.8,-,0.37,Rain,Rain,310,2013-11-06 05:52:00